<?xml version="1.0" encoding="UTF-8" standalone="no" ?><gpx xmlns="http://www.topografix.com/GPX/1/1" xmlns:gpxx="http://www.garmin.com/xmlschemas/GpxExtensions/v3" xmlns:wptx1="http://www.garmin.com/xmlschemas/WaypointExtension/v1" xmlns:gpxtpx="http://www.garmin.com/xmlschemas/TrackPointExtension/v1" creator="GuideVTT.com" version="1.1" xmlns:xsi="http://www.w3.org/2001/XMLSchema-instance" xsi:schemaLocation="http://www.topografix.com/GPX/1/1 http://www.topografix.com/GPX/1/1/gpx.xsd http://www.garmin.com/xmlschemas/GpxExtensions/v3 http://www8.garmin.com/xmlschemas/GpxExtensionsv3.xsd http://www.garmin.com/xmlschemas/WaypointExtension/v1 http://www8.garmin.com/xmlschemas/WaypointExtensionv1.xsd http://www.garmin.com/xmlschemas/TrackPointExtension/v1 http://www.garmin.com/xmlschemas/TrackPointExtensionv1.xsd">
<metadata><link href="http://www.garmin.com"><text>Garmin International</text></link><time>2013-06-22T15:13:50Z</time></metadata>
<trk><name>dgap-rando2.gpx</name><extensions><gpxx:TrackExtension><gpxx:DisplayColor>Cyan</gpxx:DisplayColor></gpxx:TrackExtension></extensions><trkseg>
<trkpt lat="44.69499180" lon="5.48454990"><ele>587</ele><time>2007-11-22T18:41:00Z</time></trkpt>
<trkpt lat="44.69518230" lon="5.48654810"><ele>585</ele><time>2007-11-22T18:41:00Z</time></trkpt>
<trkpt lat="44.69510390" lon="5.48849970"><ele>579</ele><time>2007-11-22T18:41:00Z</time></trkpt>
<trkpt lat="44.69433630" lon="5.49016010"><ele>571</ele><time>2007-11-22T18:41:00Z</time></trkpt>
<trkpt lat="44.69381650" lon="5.49338030"><ele>580</ele><time>2007-11-22T18:41:00Z</time></trkpt>
<trkpt lat="44.69357080" lon="5.49645810"><ele>600</ele><time>2007-11-22T18:41:00Z</time></trkpt>
<trkpt lat="44.69218450" lon="5.49928230"><ele>600</ele><time>2007-11-22T18:41:00Z</time></trkpt>
<trkpt lat="44.69222810" lon="5.50168230"><ele>603</ele><time>2007-11-22T18:41:00Z</time></trkpt>
<trkpt lat="44.69245530" lon="5.50238920"><ele>608</ele><time>2007-11-22T18:41:00Z</time></trkpt>
<trkpt lat="44.69261040" lon="5.50012650"><ele>622</ele><time>2007-11-22T18:41:00Z</time></trkpt>
<trkpt lat="44.69345350" lon="5.49897530"><ele>645</ele><time>2007-11-22T18:41:00Z</time></trkpt>
<trkpt lat="44.69532460" lon="5.49886000"><ele>675</ele><time>2007-11-22T18:41:00Z</time></trkpt>
<trkpt lat="44.69584570" lon="5.49952040"><ele>707</ele><time>2007-11-22T18:41:00Z</time></trkpt>
<trkpt lat="44.69614430" lon="5.49773900"><ele>701</ele><time>2007-11-22T18:41:00Z</time></trkpt>
<trkpt lat="44.69576160" lon="5.49696020"><ele>691</ele><time>2007-11-22T18:41:00Z</time></trkpt>
<trkpt lat="44.69591270" lon="5.49640090"><ele>706</ele><time>2007-11-22T18:41:00Z</time></trkpt>
<trkpt lat="44.69627220" lon="5.49642110"><ele>716</ele><time>2007-11-22T18:41:00Z</time></trkpt>
<trkpt lat="44.69717790" lon="5.49700850"><ele>748</ele><time>2007-11-22T18:41:00Z</time></trkpt>
<trkpt lat="44.69807390" lon="5.49715370"><ele>760</ele><time>2007-11-22T18:41:00Z</time></trkpt>
<trkpt lat="44.69907580" lon="5.49752570"><ele>766</ele><time>2007-11-22T18:41:00Z</time></trkpt>
<trkpt lat="44.69998630" lon="5.49716690"><ele>763</ele><time>2007-11-22T18:41:00Z</time></trkpt>
<trkpt lat="44.70020100" lon="5.49752610"><ele>777</ele><time>2007-11-22T18:41:00Z</time></trkpt>
<trkpt lat="44.69968150" lon="5.49759150"><ele>777</ele><time>2007-11-22T18:41:00Z</time></trkpt>
<trkpt lat="44.69928510" lon="5.49807390"><ele>788</ele><time>2007-11-22T18:41:00Z</time></trkpt>
<trkpt lat="44.69823730" lon="5.49773080"><ele>788</ele><time>2007-11-22T18:41:00Z</time></trkpt>
<trkpt lat="44.69784100" lon="5.49821330"><ele>808</ele><time>2007-11-22T18:41:00Z</time></trkpt>
<trkpt lat="44.69740960" lon="5.49834670"><ele>801</ele><time>2007-11-22T18:41:00Z</time></trkpt>
<trkpt lat="44.69732860" lon="5.49881540"><ele>795</ele><time>2007-11-22T18:41:00Z</time></trkpt>
<trkpt lat="44.69807230" lon="5.50112900"><ele>823</ele><time>2007-11-22T18:41:00Z</time></trkpt>
<trkpt lat="44.69821670" lon="5.50236760"><ele>839</ele><time>2007-11-22T18:41:00Z</time></trkpt>
<trkpt lat="44.69765400" lon="5.50315610"><ele>855</ele><time>2007-11-22T18:41:00Z</time></trkpt>
<trkpt lat="44.69668080" lon="5.50256480"><ele>845</ele><time>2007-11-22T18:41:00Z</time></trkpt>
<trkpt lat="44.69636450" lon="5.50261000"><ele>846</ele><time>2007-11-22T18:41:00Z</time></trkpt>
<trkpt lat="44.69637430" lon="5.50305220"><ele>845</ele><time>2007-11-22T18:41:00Z</time></trkpt>
<trkpt lat="44.69688250" lon="5.50494240"><ele>851</ele><time>2007-11-22T18:41:00Z</time></trkpt>
<trkpt lat="44.69723910" lon="5.50584590"><ele>852</ele><time>2007-11-22T18:41:00Z</time></trkpt>
<trkpt lat="44.69748800" lon="5.50579690"><ele>871</ele><time>2007-11-22T18:41:00Z</time></trkpt>
<trkpt lat="44.69721770" lon="5.50502440"><ele>871</ele><time>2007-11-22T18:41:00Z</time></trkpt>
<trkpt lat="44.69712890" lon="5.50419910"><ele>878</ele><time>2007-11-22T18:41:00Z</time></trkpt>
<trkpt lat="44.69772560" lon="5.50457990"><ele>900</ele><time>2007-11-22T18:41:00Z</time></trkpt>
<trkpt lat="44.69938390" lon="5.50325380"><ele>932</ele><time>2007-11-22T18:41:00Z</time></trkpt>
<trkpt lat="44.69958350" lon="5.50257100"><ele>926</ele><time>2007-11-22T18:41:00Z</time></trkpt>
<trkpt lat="44.70116430" lon="5.50237630"><ele>960</ele><time>2007-11-22T18:41:00Z</time></trkpt>
<trkpt lat="44.70327910" lon="5.50161230"><ele>973</ele><time>2007-11-22T18:41:00Z</time></trkpt>
<trkpt lat="44.70433790" lon="5.50078860"><ele>976</ele><time>2007-11-22T18:41:00Z</time></trkpt>
<trkpt lat="44.70578880" lon="5.49806220"><ele>982</ele><time>2007-11-22T18:41:00Z</time></trkpt>
<trkpt lat="44.70599460" lon="5.49794760"><ele>989</ele><time>2007-11-22T18:41:00Z</time></trkpt>
<trkpt lat="44.70599080" lon="5.49965130"><ele>1009</ele><time>2007-11-22T18:41:00Z</time></trkpt>
<trkpt lat="44.70549890" lon="5.50110660"><ele>1025</ele><time>2007-11-22T18:41:00Z</time></trkpt>
<trkpt lat="44.70473560" lon="5.50260970"><ele>1048</ele><time>2007-11-22T18:41:00Z</time></trkpt>
<trkpt lat="44.70268790" lon="5.50495510"><ele>1088</ele><time>2007-11-22T18:41:00Z</time></trkpt>
<trkpt lat="44.70223860" lon="5.50492970"><ele>1088</ele><time>2007-11-22T18:41:00Z</time></trkpt>
<trkpt lat="44.70053460" lon="5.50549590"><ele>1094</ele><time>2007-11-22T18:41:00Z</time></trkpt>
<trkpt lat="44.70051280" lon="5.50625190"><ele>1079</ele><time>2007-11-22T18:41:00Z</time></trkpt>
<trkpt lat="44.70083690" lon="5.50750080"><ele>1092</ele><time>2007-11-22T18:41:00Z</time></trkpt>
<trkpt lat="44.69982870" lon="5.51047260"><ele>1102</ele><time>2007-11-22T18:41:00Z</time></trkpt>
<trkpt lat="44.69883790" lon="5.51205720"><ele>1076</ele><time>2007-11-22T18:41:00Z</time></trkpt>
<trkpt lat="44.70009400" lon="5.51298020"><ele>1047</ele><time>2007-11-22T18:41:00Z</time></trkpt>
<trkpt lat="44.70173450" lon="5.51461930"><ele>1048</ele><time>2007-11-22T18:41:00Z</time></trkpt>
<trkpt lat="44.70187450" lon="5.51522670"><ele>1028</ele><time>2007-11-22T18:41:00Z</time></trkpt>
<trkpt lat="44.70264810" lon="5.51571240"><ele>1036</ele><time>2007-11-22T18:41:00Z</time></trkpt>
<trkpt lat="44.70320580" lon="5.51665900"><ele>1018</ele><time>2007-11-22T18:41:00Z</time></trkpt>
<trkpt lat="44.70481770" lon="5.51772870"><ele>1015</ele><time>2007-11-22T18:41:00Z</time></trkpt>
<trkpt lat="44.70543460" lon="5.51896280"><ele>1014</ele><time>2007-11-22T18:41:00Z</time></trkpt>
<trkpt lat="44.70632150" lon="5.51942340"><ele>1019</ele><time>2007-11-22T18:41:00Z</time></trkpt>
<trkpt lat="44.70781850" lon="5.51979240"><ele>1044</ele><time>2007-11-22T18:41:00Z</time></trkpt>
<trkpt lat="44.70735060" lon="5.51885070"><ele>1078</ele><time>2007-11-22T18:41:00Z</time></trkpt>
<trkpt lat="44.70822500" lon="5.51896350"><ele>1075</ele><time>2007-11-22T18:41:00Z</time></trkpt>
<trkpt lat="44.70906110" lon="5.51806430"><ele>1091</ele><time>2007-11-22T18:41:00Z</time></trkpt>
<trkpt lat="44.71019690" lon="5.51847590"><ele>1072</ele><time>2007-11-22T18:41:00Z</time></trkpt>
<trkpt lat="44.71090030" lon="5.51905240"><ele>1067</ele><time>2007-11-22T18:41:00Z</time></trkpt>
<trkpt lat="44.71179200" lon="5.52090180"><ele>1034</ele><time>2007-11-22T18:41:00Z</time></trkpt>
<trkpt lat="44.71240650" lon="5.52144170"><ele>1010</ele><time>2007-11-22T18:41:00Z</time></trkpt>
<trkpt lat="44.71355230" lon="5.52150680"><ele>964</ele><time>2007-11-22T18:41:00Z</time></trkpt>
<trkpt lat="44.71491760" lon="5.52098480"><ele>947</ele><time>2007-11-22T18:41:00Z</time></trkpt>
<trkpt lat="44.71546960" lon="5.52057430"><ele>956</ele><time>2007-11-22T18:41:00Z</time></trkpt>
<trkpt lat="44.71593560" lon="5.51924370"><ele>987</ele><time>2007-11-22T18:41:00Z</time></trkpt>
<trkpt lat="44.71761810" lon="5.51864490"><ele>973</ele><time>2007-11-22T18:41:00Z</time></trkpt>
<trkpt lat="44.71911840" lon="5.51734140"><ele>989</ele><time>2007-11-22T18:41:00Z</time></trkpt>
<trkpt lat="44.72072160" lon="5.51481270"><ele>1000</ele><time>2007-11-22T18:41:00Z</time></trkpt>
<trkpt lat="44.72077470" lon="5.51453170"><ele>1007</ele><time>2007-11-22T18:41:00Z</time></trkpt>
<trkpt lat="44.72107590" lon="5.51423310"><ele>1003</ele><time>2007-11-22T18:41:00Z</time></trkpt>
<trkpt lat="44.72113810" lon="5.51363690"><ele>1012</ele><time>2007-11-22T18:41:00Z</time></trkpt>
<trkpt lat="44.72191100" lon="5.51336510"><ele>1012</ele><time>2007-11-22T18:41:00Z</time></trkpt>
<trkpt lat="44.72322410" lon="5.51309240"><ele>1019</ele><time>2007-11-22T18:41:00Z</time></trkpt>
<trkpt lat="44.72373470" lon="5.51255320"><ele>1029</ele><time>2007-11-22T18:41:00Z</time></trkpt>
<trkpt lat="44.72396960" lon="5.51143020"><ele>1047</ele><time>2007-11-22T18:41:00Z</time></trkpt>
<trkpt lat="44.72454760" lon="5.51089480"><ele>1023</ele><time>2007-11-22T18:41:00Z</time></trkpt>
<trkpt lat="44.72471240" lon="5.50986240"><ele>1035</ele><time>2007-11-22T18:41:00Z</time></trkpt>
<trkpt lat="44.72516620" lon="5.50973030"><ele>1019</ele><time>2007-11-22T18:41:00Z</time></trkpt>
<trkpt lat="44.72544670" lon="5.50936740"><ele>1041</ele><time>2007-11-22T18:41:00Z</time></trkpt>
<trkpt lat="44.72609640" lon="5.50946740"><ele>1032</ele><time>2007-11-22T18:41:00Z</time></trkpt>
<trkpt lat="44.72639780" lon="5.50837960"><ele>1064</ele><time>2007-11-22T18:41:00Z</time></trkpt>
<trkpt lat="44.72648970" lon="5.50753250"><ele>1082</ele><time>2007-11-22T18:41:00Z</time></trkpt>
<trkpt lat="44.72759690" lon="5.50737420"><ele>1047</ele><time>2007-11-22T18:41:00Z</time></trkpt>
<trkpt lat="44.72812110" lon="5.50636220"><ele>1079</ele><time>2007-11-22T18:41:00Z</time></trkpt>
<trkpt lat="44.72796400" lon="5.50556410"><ele>1095</ele><time>2007-11-22T18:41:00Z</time></trkpt>
<trkpt lat="44.72811960" lon="5.50484690"><ele>1093</ele><time>2007-11-22T18:41:00Z</time></trkpt>
<trkpt lat="44.72900940" lon="5.50442370"><ele>1070</ele><time>2007-11-22T18:41:00Z</time></trkpt>
<trkpt lat="44.72935110" lon="5.50349600"><ele>1094</ele><time>2007-11-22T18:41:00Z</time></trkpt>
<trkpt lat="44.72978700" lon="5.50320500"><ele>1087</ele><time>2007-11-22T18:41:00Z</time></trkpt>
<trkpt lat="44.73035230" lon="5.50311060"><ele>1075</ele><time>2007-11-22T18:41:00Z</time></trkpt>
<trkpt lat="44.73104900" lon="5.50236080"><ele>1095</ele><time>2007-11-22T18:41:00Z</time></trkpt>
<trkpt lat="44.73194860" lon="5.50238010"><ele>1091</ele><time>2007-11-22T18:41:00Z</time></trkpt>
<trkpt lat="44.73238360" lon="5.50212060"><ele>1095</ele><time>2007-11-22T18:41:00Z</time></trkpt>
<trkpt lat="44.73333550" lon="5.50110100"><ele>1080</ele><time>2007-11-22T18:41:00Z</time></trkpt>
<trkpt lat="44.73439410" lon="5.50106610"><ele>1065</ele><time>2007-11-22T18:41:00Z</time></trkpt>
<trkpt lat="44.73514370" lon="5.50082430"><ele>1061</ele><time>2007-11-22T18:41:00Z</time></trkpt>
<trkpt lat="44.73565970" lon="5.50009570"><ele>1061</ele><time>2007-11-22T18:41:00Z</time></trkpt>
<trkpt lat="44.73619480" lon="5.49791600"><ele>1051</ele><time>2007-11-22T18:41:00Z</time></trkpt>
<trkpt lat="44.73660730" lon="5.49765510"><ele>1035</ele><time>2007-11-22T18:41:00Z</time></trkpt>
<trkpt lat="44.73710160" lon="5.49768300"><ele>1031</ele><time>2007-11-22T18:41:00Z</time></trkpt>
<trkpt lat="44.73756710" lon="5.49793030"><ele>1018</ele><time>2007-11-22T18:41:00Z</time></trkpt>
<trkpt lat="44.73810900" lon="5.49786610"><ele>1013</ele><time>2007-11-22T18:41:00Z</time></trkpt>
<trkpt lat="44.74005170" lon="5.49917560"><ele>1004</ele><time>2007-11-22T18:41:00Z</time></trkpt>
<trkpt lat="44.74076610" lon="5.49937380"><ele>1010</ele><time>2007-11-22T18:41:00Z</time></trkpt>
<trkpt lat="44.74136100" lon="5.49981790"><ele>1001</ele><time>2007-11-22T18:41:00Z</time></trkpt>
<trkpt lat="44.74176810" lon="5.49974620"><ele>1001</ele><time>2007-11-22T18:41:00Z</time></trkpt>
<trkpt lat="44.74272890" lon="5.49920050"><ele>983</ele><time>2007-11-22T18:41:00Z</time></trkpt>
<trkpt lat="44.74323600" lon="5.49799770"><ele>975</ele><time>2007-11-22T18:41:00Z</time></trkpt>
<trkpt lat="44.74377070" lon="5.49818580"><ele>948</ele><time>2007-11-22T18:41:00Z</time></trkpt>
<trkpt lat="44.74422630" lon="5.49799050"><ele>938</ele><time>2007-11-22T18:41:00Z</time></trkpt>
<trkpt lat="44.74573820" lon="5.49627590"><ele>907</ele><time>2007-11-22T18:41:00Z</time></trkpt>
<trkpt lat="44.74684820" lon="5.49523340"><ele>884</ele><time>2007-11-22T18:41:00Z</time></trkpt>
<trkpt lat="44.74640650" lon="5.49808200"><ele>816</ele><time>2007-11-22T18:41:00Z</time></trkpt>
<trkpt lat="44.74605690" lon="5.49850430"><ele>823</ele><time>2007-11-22T18:41:00Z</time></trkpt>
<trkpt lat="44.74602700" lon="5.49954470"><ele>801</ele><time>2007-11-22T18:41:00Z</time></trkpt>
<trkpt lat="44.74563810" lon="5.50290150"><ele>762</ele><time>2007-11-22T18:41:00Z</time></trkpt>
<trkpt lat="44.74616560" lon="5.50334180"><ele>768</ele><time>2007-11-22T18:41:00Z</time></trkpt>
<trkpt lat="44.74559990" lon="5.50501500"><ele>761</ele><time>2007-11-22T18:41:00Z</time></trkpt>
<trkpt lat="44.74446030" lon="5.50551880"><ele>756</ele><time>2007-11-22T18:41:00Z</time></trkpt>
<trkpt lat="44.74305630" lon="5.50660770"><ele>755</ele><time>2007-11-22T18:41:00Z</time></trkpt>
<trkpt lat="44.74175530" lon="5.50880740"><ele>756</ele><time>2007-11-22T18:41:00Z</time></trkpt>
<trkpt lat="44.74119700" lon="5.50943890"><ele>761</ele><time>2007-11-22T18:41:00Z</time></trkpt>
<trkpt lat="44.74157810" lon="5.50949200"><ele>766</ele><time>2007-11-22T18:41:00Z</time></trkpt>
<trkpt lat="44.74015060" lon="5.51061100"><ele>784</ele><time>2007-11-22T18:41:00Z</time></trkpt>
<trkpt lat="44.74003260" lon="5.51158310"><ele>811</ele><time>2007-11-22T18:41:00Z</time></trkpt>
<trkpt lat="44.73943420" lon="5.51126500"><ele>802</ele><time>2007-11-22T18:41:00Z</time></trkpt>
<trkpt lat="44.73811910" lon="5.51239020"><ele>835</ele><time>2007-11-22T18:41:00Z</time></trkpt>
<trkpt lat="44.73687020" lon="5.51434000"><ele>852</ele><time>2007-11-22T18:41:00Z</time></trkpt>
<trkpt lat="44.73600380" lon="5.51473280"><ele>863</ele><time>2007-11-22T18:41:00Z</time></trkpt>
<trkpt lat="44.73553260" lon="5.51546380"><ele>882</ele><time>2007-11-22T18:41:00Z</time></trkpt>
<trkpt lat="44.73543000" lon="5.51590000"><ele>893</ele><time>2007-11-22T18:41:00Z</time></trkpt>
<trkpt lat="44.73614170" lon="5.51619300"><ele>917</ele><time>2007-11-22T18:41:00Z</time></trkpt>
<trkpt lat="44.73565780" lon="5.51736520"><ele>947</ele><time>2007-11-22T18:41:00Z</time></trkpt>
<trkpt lat="44.73475250" lon="5.51832410"><ele>959</ele><time>2007-11-22T18:41:00Z</time></trkpt>
<trkpt lat="44.73403750" lon="5.51970410"><ele>975</ele><time>2007-11-22T18:41:00Z</time></trkpt>
<trkpt lat="44.73403720" lon="5.52049340"><ele>997</ele><time>2007-11-22T18:41:00Z</time></trkpt>
<trkpt lat="44.73340150" lon="5.52146750"><ele>1011</ele><time>2007-11-22T18:41:00Z</time></trkpt>
<trkpt lat="44.73301440" lon="5.52318180"><ele>1061</ele><time>2007-11-22T18:41:00Z</time></trkpt>
<trkpt lat="44.73235800" lon="5.52409160"><ele>1062</ele><time>2007-11-22T18:41:00Z</time></trkpt>
<trkpt lat="44.73175800" lon="5.52538340"><ele>1066</ele><time>2007-11-22T18:41:00Z</time></trkpt>
<trkpt lat="44.73145160" lon="5.52741790"><ele>1090</ele><time>2007-11-22T18:41:00Z</time></trkpt>
<trkpt lat="44.73062700" lon="5.52869680"><ele>1090</ele><time>2007-11-22T18:41:00Z</time></trkpt>
<trkpt lat="44.73061570" lon="5.52986430"><ele>1109</ele><time>2007-11-22T18:41:00Z</time></trkpt>
<trkpt lat="44.73007240" lon="5.53074880"><ele>1108</ele><time>2007-11-22T18:41:00Z</time></trkpt>
<trkpt lat="44.72916880" lon="5.53164430"><ele>1097</ele><time>2007-11-22T18:41:00Z</time></trkpt>
<trkpt lat="44.72921390" lon="5.53319370"><ele>1075</ele><time>2007-11-22T18:41:00Z</time></trkpt>
<trkpt lat="44.73011910" lon="5.53457130"><ele>1069</ele><time>2007-11-22T18:41:00Z</time></trkpt>
<trkpt lat="44.73053280" lon="5.53582610"><ele>1061</ele><time>2007-11-22T18:41:00Z</time></trkpt>
<trkpt lat="44.73097310" lon="5.53771380"><ele>1035</ele><time>2007-11-22T18:41:00Z</time></trkpt>
<trkpt lat="44.73092130" lon="5.53872110"><ele>1023</ele><time>2007-11-22T18:41:00Z</time></trkpt>
<trkpt lat="44.73112490" lon="5.53945880"><ele>1020</ele><time>2007-11-22T18:41:00Z</time></trkpt>
<trkpt lat="44.73088740" lon="5.53988720"><ele>1011</ele><time>2007-11-22T18:41:00Z</time></trkpt>
<trkpt lat="44.73089610" lon="5.54036120"><ele>1005</ele><time>2007-11-22T18:41:00Z</time></trkpt>
<trkpt lat="44.73057610" lon="5.54053230"><ele>995</ele><time>2007-11-22T18:41:00Z</time></trkpt>
<trkpt lat="44.73116760" lon="5.54186050"><ele>990</ele><time>2007-11-22T18:41:00Z</time></trkpt>
<trkpt lat="44.73157800" lon="5.54245230"><ele>985</ele><time>2007-11-22T18:41:00Z</time></trkpt>
<trkpt lat="44.73455680" lon="5.54448550"><ele>943</ele><time>2007-11-22T18:41:00Z</time></trkpt>
<trkpt lat="44.73533950" lon="5.54465660"><ele>952</ele><time>2007-11-22T18:41:00Z</time></trkpt>
<trkpt lat="44.73716110" lon="5.54624490"><ele>917</ele><time>2007-11-22T18:41:00Z</time></trkpt>
<trkpt lat="44.73838570" lon="5.54669400"><ele>882</ele><time>2007-11-22T18:41:00Z</time></trkpt>
<trkpt lat="44.73979790" lon="5.54611180"><ele>877</ele><time>2007-11-22T18:41:00Z</time></trkpt>
<trkpt lat="44.74103540" lon="5.54611960"><ele>875</ele><time>2007-11-22T18:41:00Z</time></trkpt>
<trkpt lat="44.74145170" lon="5.54728020"><ele>875</ele><time>2007-11-22T18:41:00Z</time></trkpt>
<trkpt lat="44.74092990" lon="5.54819750"><ele>871</ele><time>2007-11-22T18:41:00Z</time></trkpt>
<trkpt lat="44.74072260" lon="5.54913290"><ele>884</ele><time>2007-11-22T18:41:00Z</time></trkpt>
<trkpt lat="44.73833460" lon="5.55076400"><ele>854</ele><time>2007-11-22T18:41:00Z</time></trkpt>
<trkpt lat="44.73704250" lon="5.55185810"><ele>854</ele><time>2007-11-22T18:41:00Z</time></trkpt>
<trkpt lat="44.73656700" lon="5.55195710"><ele>847</ele><time>2007-11-22T18:41:00Z</time></trkpt>
<trkpt lat="44.73704560" lon="5.55252130"><ele>863</ele><time>2007-11-22T18:41:00Z</time></trkpt>
<trkpt lat="44.73729450" lon="5.55401950"><ele>863</ele><time>2007-11-22T18:41:00Z</time></trkpt>
<trkpt lat="44.73771860" lon="5.55413860"><ele>868</ele><time>2007-11-22T18:41:00Z</time></trkpt>
<trkpt lat="44.73814950" lon="5.55479480"><ele>869</ele><time>2007-11-22T18:41:00Z</time></trkpt>
<trkpt lat="44.73782300" lon="5.55518650"><ele>860</ele><time>2007-11-22T18:41:00Z</time></trkpt>
<trkpt lat="44.73793760" lon="5.55588770"><ele>862</ele><time>2007-11-22T18:41:00Z</time></trkpt>
<trkpt lat="44.73886950" lon="5.55710950"><ele>874</ele><time>2007-11-22T18:41:00Z</time></trkpt>
<trkpt lat="44.73963780" lon="5.55854300"><ele>875</ele><time>2007-11-22T18:41:00Z</time></trkpt>
<trkpt lat="44.73985860" lon="5.56022910"><ele>887</ele><time>2007-11-22T18:41:00Z</time></trkpt>
<trkpt lat="44.73978500" lon="5.56120370"><ele>891</ele><time>2007-11-22T18:41:00Z</time></trkpt>
<trkpt lat="44.74084620" lon="5.56262260"><ele>909</ele><time>2007-11-22T18:41:00Z</time></trkpt>
<trkpt lat="44.74151470" lon="5.56285050"><ele>933</ele><time>2007-11-22T18:41:00Z</time></trkpt>
<trkpt lat="44.74092660" lon="5.56449010"><ele>944</ele><time>2007-11-22T18:41:00Z</time></trkpt>
<trkpt lat="44.74153290" lon="5.56607230"><ele>954</ele><time>2007-11-22T18:41:00Z</time></trkpt>
<trkpt lat="44.74145750" lon="5.56710990"><ele>953</ele><time>2007-11-22T18:41:00Z</time></trkpt>
<trkpt lat="44.74179750" lon="5.56779270"><ele>965</ele><time>2007-11-22T18:41:00Z</time></trkpt>
<trkpt lat="44.74163370" lon="5.57030930"><ele>972</ele><time>2007-11-22T18:41:00Z</time></trkpt>
<trkpt lat="44.74165580" lon="5.57185780"><ele>969</ele><time>2007-11-22T18:41:00Z</time></trkpt>
<trkpt lat="44.74186100" lon="5.57253270"><ele>979</ele><time>2007-11-22T18:41:00Z</time></trkpt>
<trkpt lat="44.74294730" lon="5.57385860"><ele>1023</ele><time>2007-11-22T18:41:00Z</time></trkpt>
<trkpt lat="44.74254250" lon="5.57538240"><ele>1043</ele><time>2007-11-22T18:41:00Z</time></trkpt>
<trkpt lat="44.74275370" lon="5.57738390"><ele>1074</ele><time>2007-11-22T18:41:00Z</time></trkpt>
<trkpt lat="44.74307310" lon="5.57800240"><ele>1057</ele><time>2007-11-22T18:41:00Z</time></trkpt>
<trkpt lat="44.74318220" lon="5.57658770"><ele>1112</ele><time>2007-11-22T18:41:00Z</time></trkpt>
<trkpt lat="44.74379600" lon="5.57561280"><ele>1125</ele><time>2007-11-22T18:41:00Z</time></trkpt>
<trkpt lat="44.74427890" lon="5.57526180"><ele>1128</ele><time>2007-11-22T18:41:00Z</time></trkpt>
<trkpt lat="44.74520640" lon="5.57509440"><ele>1140</ele><time>2007-11-22T18:41:00Z</time></trkpt>
<trkpt lat="44.74429140" lon="5.57636770"><ele>1142</ele><time>2007-11-22T18:41:00Z</time></trkpt>
<trkpt lat="44.74437030" lon="5.57750910"><ele>1140</ele><time>2007-11-22T18:41:00Z</time></trkpt>
<trkpt lat="44.74476640" lon="5.57781620"><ele>1151</ele><time>2007-11-22T18:41:00Z</time></trkpt>
<trkpt lat="44.74571830" lon="5.57758710"><ele>1174</ele><time>2007-11-22T18:41:00Z</time></trkpt>
<trkpt lat="44.74580260" lon="5.57778150"><ele>1176</ele><time>2007-11-22T18:41:00Z</time></trkpt>
<trkpt lat="44.74552930" lon="5.57789190"><ele>1173</ele><time>2007-11-22T18:41:00Z</time></trkpt>
<trkpt lat="44.74542460" lon="5.57839110"><ele>1166</ele><time>2007-11-22T18:41:00Z</time></trkpt>
<trkpt lat="44.74589940" lon="5.57908180"><ele>1164</ele><time>2007-11-22T18:41:00Z</time></trkpt>
<trkpt lat="44.74696760" lon="5.57949100"><ele>1190</ele><time>2007-11-22T18:41:00Z</time></trkpt>
<trkpt lat="44.74761100" lon="5.58057040"><ele>1190</ele><time>2007-11-22T18:41:00Z</time></trkpt>
<trkpt lat="44.74781430" lon="5.58130850"><ele>1183</ele><time>2007-11-22T18:41:00Z</time></trkpt>
<trkpt lat="44.74852190" lon="5.58097050"><ele>1205</ele><time>2007-11-22T18:41:00Z</time></trkpt>
<trkpt lat="44.74884610" lon="5.58218940"><ele>1212</ele><time>2007-11-22T18:41:00Z</time></trkpt>
<trkpt lat="44.74908020" lon="5.58264510"><ele>1224</ele><time>2007-11-22T18:41:00Z</time></trkpt>
<trkpt lat="44.74938660" lon="5.58828410"><ele>1233</ele><time>2007-11-22T18:41:00Z</time></trkpt>
<trkpt lat="44.75064590" lon="5.58984160"><ele>1224</ele><time>2007-11-22T18:41:00Z</time></trkpt>
<trkpt lat="44.75106150" lon="5.58948680"><ele>1247</ele><time>2007-11-22T18:41:00Z</time></trkpt>
<trkpt lat="44.75233490" lon="5.59132940"><ele>1239</ele><time>2007-11-22T18:41:00Z</time></trkpt>
<trkpt lat="44.75322040" lon="5.59106500"><ele>1272</ele><time>2007-11-22T18:41:00Z</time></trkpt>
<trkpt lat="44.75342910" lon="5.59085610"><ele>1283</ele><time>2007-11-22T18:41:00Z</time></trkpt>
<trkpt lat="44.75309390" lon="5.59077340"><ele>1269</ele><time>2007-11-22T18:41:00Z</time></trkpt>
<trkpt lat="44.75257070" lon="5.59096410"><ele>1253</ele><time>2007-11-22T18:41:00Z</time></trkpt>
<trkpt lat="44.75217280" lon="5.59071990"><ele>1257</ele><time>2007-11-22T18:41:00Z</time></trkpt>
<trkpt lat="44.75162670" lon="5.58863530"><ele>1287</ele><time>2007-11-22T18:41:00Z</time></trkpt>
<trkpt lat="44.75052740" lon="5.58699240"><ele>1288</ele><time>2007-11-22T18:41:00Z</time></trkpt>
<trkpt lat="44.75041030" lon="5.58638560"><ele>1295</ele><time>2007-11-22T18:41:00Z</time></trkpt>
<trkpt lat="44.75057310" lon="5.58620550"><ele>1304</ele><time>2007-11-22T18:41:00Z</time></trkpt>
<trkpt lat="44.75075950" lon="5.58675320"><ele>1300</ele><time>2007-11-22T18:41:00Z</time></trkpt>
<trkpt lat="44.75203850" lon="5.58840660"><ele>1312</ele><time>2007-11-22T18:41:00Z</time></trkpt>
<trkpt lat="44.75276610" lon="5.58968060"><ele>1305</ele><time>2007-11-22T18:41:00Z</time></trkpt>
<trkpt lat="44.75318740" lon="5.58989450"><ele>1287</ele><time>2007-11-22T18:41:00Z</time></trkpt>
<trkpt lat="44.75478130" lon="5.58850270"><ele>1338</ele><time>2007-11-22T18:41:00Z</time></trkpt>
<trkpt lat="44.75464610" lon="5.59155850"><ele>1344</ele><time>2007-11-22T18:41:00Z</time></trkpt>
<trkpt lat="44.75515360" lon="5.59266180"><ele>1357</ele><time>2007-11-22T18:41:00Z</time></trkpt>
<trkpt lat="44.75509750" lon="5.59303760"><ele>1356</ele><time>2007-11-22T18:41:00Z</time></trkpt>
<trkpt lat="44.75479240" lon="5.59346200"><ele>1355</ele><time>2007-11-22T18:41:00Z</time></trkpt>
<trkpt lat="44.75481960" lon="5.59406370"><ele>1357</ele><time>2007-11-22T18:41:00Z</time></trkpt>
<trkpt lat="44.75570350" lon="5.59537850"><ele>1369</ele><time>2007-11-22T18:41:00Z</time></trkpt>
<trkpt lat="44.75598820" lon="5.59640580"><ele>1379</ele><time>2007-11-22T18:41:00Z</time></trkpt>
<trkpt lat="44.75565140" lon="5.59790220"><ele>1369</ele><time>2007-11-22T18:41:00Z</time></trkpt>
<trkpt lat="44.75625240" lon="5.59888470"><ele>1389</ele><time>2007-11-22T18:41:00Z</time></trkpt>
<trkpt lat="44.75643690" lon="5.59949560"><ele>1387</ele><time>2007-11-22T18:41:00Z</time></trkpt>
<trkpt lat="44.75684790" lon="5.60005650"><ele>1402</ele><time>2007-11-22T18:41:00Z</time></trkpt>
<trkpt lat="44.75716070" lon="5.60241200"><ele>1421</ele><time>2007-11-22T18:41:00Z</time></trkpt>
<trkpt lat="44.75656830" lon="5.60341980"><ele>1447</ele><time>2007-11-22T18:41:00Z</time></trkpt>
<trkpt lat="44.75620320" lon="5.60282990"><ele>1408</ele><time>2007-11-22T18:41:00Z</time></trkpt>
<trkpt lat="44.75529890" lon="5.60296670"><ele>1433</ele><time>2007-11-22T18:41:00Z</time></trkpt>
<trkpt lat="44.75397630" lon="5.60431080"><ele>1474</ele><time>2007-11-22T18:41:00Z</time></trkpt>
<trkpt lat="44.75307220" lon="5.60747940"><ele>1497</ele><time>2007-11-22T18:41:00Z</time></trkpt>
<trkpt lat="44.75307780" lon="5.61259620"><ele>1549</ele><time>2007-11-22T18:41:00Z</time></trkpt>
<trkpt lat="44.75276610" lon="5.61324120"><ele>1555</ele><time>2007-11-22T18:41:00Z</time></trkpt>
<trkpt lat="44.75142650" lon="5.61515250"><ele>1564</ele><time>2007-11-22T18:41:00Z</time></trkpt>
<trkpt lat="44.75061670" lon="5.61665260"><ele>1570</ele><time>2007-11-22T18:41:00Z</time></trkpt>
<trkpt lat="44.74845810" lon="5.61734720"><ele>1580</ele><time>2007-11-22T18:41:00Z</time></trkpt>
<trkpt lat="44.74706230" lon="5.61887600"><ele>1595</ele><time>2007-11-22T18:41:00Z</time></trkpt>
<trkpt lat="44.74674120" lon="5.61983610"><ele>1600</ele><time>2007-11-22T18:41:00Z</time></trkpt>
<trkpt lat="44.74575630" lon="5.62116780"><ele>1599</ele><time>2007-11-22T18:41:00Z</time></trkpt>
<trkpt lat="44.74487350" lon="5.62209500"><ele>1598</ele><time>2007-11-22T18:41:00Z</time></trkpt>
<trkpt lat="44.74216440" lon="5.62313590"><ele>1611</ele><time>2007-11-22T18:41:00Z</time></trkpt>
<trkpt lat="44.74109620" lon="5.62424160"><ele>1586</ele><time>2007-11-22T18:41:00Z</time></trkpt>
<trkpt lat="44.73990260" lon="5.62502400"><ele>1553</ele><time>2007-11-22T18:41:00Z</time></trkpt>
<trkpt lat="44.73706260" lon="5.62517300"><ele>1473</ele><time>2007-11-22T18:41:00Z</time></trkpt>
<trkpt lat="44.73472450" lon="5.62358340"><ele>1411</ele><time>2007-11-22T18:41:00Z</time></trkpt>
<trkpt lat="44.73451100" lon="5.62394970"><ele>1401</ele><time>2007-11-22T18:41:00Z</time></trkpt>
<trkpt lat="44.73360780" lon="5.62329680"><ele>1384</ele><time>2007-11-22T18:41:00Z</time></trkpt>
<trkpt lat="44.73316040" lon="5.62244970"><ele>1385</ele><time>2007-11-22T18:41:00Z</time></trkpt>
<trkpt lat="44.73100770" lon="5.62068170"><ele>1350</ele><time>2007-11-22T18:41:00Z</time></trkpt>
<trkpt lat="44.73095630" lon="5.61938430"><ele>1358</ele><time>2007-11-22T18:41:00Z</time></trkpt>
<trkpt lat="44.72997350" lon="5.61837960"><ele>1331</ele><time>2007-11-22T18:41:00Z</time></trkpt>
<trkpt lat="44.72956820" lon="5.61838740"><ele>1323</ele><time>2007-11-22T18:41:00Z</time></trkpt>
<trkpt lat="44.72897560" lon="5.61863680"><ele>1313</ele><time>2007-11-22T18:41:00Z</time></trkpt>
<trkpt lat="44.72819030" lon="5.61855920"><ele>1305</ele><time>2007-11-22T18:41:00Z</time></trkpt>
<trkpt lat="44.72808630" lon="5.61902670"><ele>1294</ele><time>2007-11-22T18:41:00Z</time></trkpt>
<trkpt lat="44.72705590" lon="5.61735630"><ele>1291</ele><time>2007-11-22T18:41:00Z</time></trkpt>
<trkpt lat="44.72718210" lon="5.61916310"><ele>1275</ele><time>2007-11-22T18:41:00Z</time></trkpt>
<trkpt lat="44.72746750" lon="5.62015840"><ele>1255</ele><time>2007-11-22T18:41:00Z</time></trkpt>
<trkpt lat="44.72813680" lon="5.62035550"><ele>1259</ele><time>2007-11-22T18:41:00Z</time></trkpt>
<trkpt lat="44.72733640" lon="5.62078210"><ele>1237</ele><time>2007-11-22T18:41:00Z</time></trkpt>
<trkpt lat="44.72786900" lon="5.62103430"><ele>1238</ele><time>2007-11-22T18:41:00Z</time></trkpt>
<trkpt lat="44.72742240" lon="5.62167110"><ele>1239</ele><time>2007-11-22T18:41:00Z</time></trkpt>
<trkpt lat="44.72613070" lon="5.62121650"><ele>1224</ele><time>2007-11-22T18:41:00Z</time></trkpt>
<trkpt lat="44.72341620" lon="5.62093110"><ele>1194</ele><time>2007-11-22T18:41:00Z</time></trkpt>
<trkpt lat="44.72264770" lon="5.62028630"><ele>1169</ele><time>2007-11-22T18:41:00Z</time></trkpt>
<trkpt lat="44.72285720" lon="5.62231880"><ele>1190</ele><time>2007-11-22T18:41:00Z</time></trkpt>
<trkpt lat="44.72132030" lon="5.62102910"><ele>1202</ele><time>2007-11-22T18:41:00Z</time></trkpt>
<trkpt lat="44.71953150" lon="5.62139770"><ele>1217</ele><time>2007-11-22T18:41:00Z</time></trkpt>
<trkpt lat="44.71897550" lon="5.62117570"><ele>1218</ele><time>2007-11-22T18:41:00Z</time></trkpt>
<trkpt lat="44.71878090" lon="5.62015430"><ele>1224</ele><time>2007-11-22T18:41:00Z</time></trkpt>
<trkpt lat="44.71761090" lon="5.61863380"><ele>1269</ele><time>2007-11-22T18:41:00Z</time></trkpt>
<trkpt lat="44.71680500" lon="5.61849190"><ele>1299</ele><time>2007-11-22T18:41:00Z</time></trkpt>
<trkpt lat="44.71598970" lon="5.61866510"><ele>1318</ele><time>2007-11-22T18:41:00Z</time></trkpt>
<trkpt lat="44.71475310" lon="5.61862420"><ele>1320</ele><time>2007-11-22T18:41:00Z</time></trkpt>
<trkpt lat="44.71412030" lon="5.61871340"><ele>1320</ele><time>2007-11-22T18:41:00Z</time></trkpt>
<trkpt lat="44.71364660" lon="5.61950620"><ele>1314</ele><time>2007-11-22T18:41:00Z</time></trkpt>
<trkpt lat="44.71367000" lon="5.62023350"><ele>1311</ele><time>2007-11-22T18:41:00Z</time></trkpt>
<trkpt lat="44.71407420" lon="5.62177210"><ele>1332</ele><time>2007-11-22T18:41:00Z</time></trkpt>
<trkpt lat="44.71426870" lon="5.62355090"><ele>1342</ele><time>2007-11-22T18:41:00Z</time></trkpt>
<trkpt lat="44.71433560" lon="5.62734220"><ele>1336</ele><time>2007-11-22T18:41:00Z</time></trkpt>
<trkpt lat="44.71520340" lon="5.63219060"><ele>1327</ele><time>2007-11-22T18:41:00Z</time></trkpt>
<trkpt lat="44.71336420" lon="5.63123030"><ele>1302</ele><time>2007-11-22T18:41:00Z</time></trkpt>
<trkpt lat="44.71256850" lon="5.63149910"><ele>1316</ele><time>2007-11-22T18:41:00Z</time></trkpt>
<trkpt lat="44.71085560" lon="5.63083030"><ele>1304</ele><time>2007-11-22T18:41:00Z</time></trkpt>
<trkpt lat="44.70969410" lon="5.63054110"><ele>1311</ele><time>2007-11-22T18:41:00Z</time></trkpt>
<trkpt lat="44.70911780" lon="5.62873990"><ele>1308</ele><time>2007-11-22T18:41:00Z</time></trkpt>
<trkpt lat="44.70869420" lon="5.62559070"><ele>1318</ele><time>2007-11-22T18:41:00Z</time></trkpt>
<trkpt lat="44.70780130" lon="5.62534900"><ele>1344</ele><time>2007-11-22T18:41:00Z</time></trkpt>
<trkpt lat="44.70535330" lon="5.62668840"><ele>1330</ele><time>2007-11-22T18:41:00Z</time></trkpt>
<trkpt lat="44.70440410" lon="5.62682200"><ele>1317</ele><time>2007-11-22T18:41:00Z</time></trkpt>
<trkpt lat="44.70415400" lon="5.62765940"><ele>1328</ele><time>2007-11-22T18:41:00Z</time></trkpt>
<trkpt lat="44.70323460" lon="5.62905690"><ele>1332</ele><time>2007-11-22T18:41:00Z</time></trkpt>
<trkpt lat="44.70282270" lon="5.62928510"><ele>1331</ele><time>2007-11-22T18:41:00Z</time></trkpt>
<trkpt lat="44.70181920" lon="5.62973100"><ele>1337</ele><time>2007-11-22T18:41:00Z</time></trkpt>
<trkpt lat="44.70138840" lon="5.63058920"><ele>1342</ele><time>2007-11-22T18:41:00Z</time></trkpt>
<trkpt lat="44.70153050" lon="5.63185980"><ele>1336</ele><time>2007-11-22T18:41:00Z</time></trkpt>
<trkpt lat="44.70197400" lon="5.63283250"><ele>1347</ele><time>2007-11-22T18:41:00Z</time></trkpt>
<trkpt lat="44.70214680" lon="5.63457810"><ele>1359</ele><time>2007-11-22T18:41:00Z</time></trkpt>
<trkpt lat="44.70203860" lon="5.63668590"><ele>1351</ele><time>2007-11-22T18:41:00Z</time></trkpt>
<trkpt lat="44.70270650" lon="5.63842920"><ele>1372</ele><time>2007-11-22T18:41:00Z</time></trkpt>
<trkpt lat="44.70370250" lon="5.64199060"><ele>1388</ele><time>2007-11-22T18:41:00Z</time></trkpt>
<trkpt lat="44.70353440" lon="5.64384250"><ele>1360</ele><time>2007-11-22T18:41:00Z</time></trkpt>
<trkpt lat="44.70403830" lon="5.64579710"><ele>1365</ele><time>2007-11-22T18:41:00Z</time></trkpt>
<trkpt lat="44.70399760" lon="5.64715160"><ele>1361</ele><time>2007-11-22T18:41:00Z</time></trkpt>
<trkpt lat="44.70361330" lon="5.64870670"><ele>1356</ele><time>2007-11-22T18:41:00Z</time></trkpt>
<trkpt lat="44.70292420" lon="5.64917090"><ele>1338</ele><time>2007-11-22T18:41:00Z</time></trkpt>
<trkpt lat="44.70156780" lon="5.64937470"><ele>1313</ele><time>2007-11-22T18:41:00Z</time></trkpt>
<trkpt lat="44.70121020" lon="5.64929040"><ele>1305</ele><time>2007-11-22T18:41:00Z</time></trkpt>
<trkpt lat="44.70061860" lon="5.64950790"><ele>1300</ele><time>2007-11-22T18:41:00Z</time></trkpt>
<trkpt lat="44.70009970" lon="5.65029760"><ele>1315</ele><time>2007-11-22T18:41:00Z</time></trkpt>
<trkpt lat="44.69949410" lon="5.65023020"><ele>1309</ele><time>2007-11-22T18:41:00Z</time></trkpt>
<trkpt lat="44.69830890" lon="5.65072810"><ele>1314</ele><time>2007-11-22T18:41:00Z</time></trkpt>
<trkpt lat="44.69672590" lon="5.65098150"><ele>1312</ele><time>2007-11-22T18:41:00Z</time></trkpt>
<trkpt lat="44.69588020" lon="5.65216200"><ele>1324</ele><time>2007-11-22T18:41:00Z</time></trkpt>
<trkpt lat="44.69350690" lon="5.65325210"><ele>1327</ele><time>2007-11-22T18:41:00Z</time></trkpt>
<trkpt lat="44.69143700" lon="5.65398140"><ele>1320</ele><time>2007-11-22T18:41:00Z</time></trkpt>
<trkpt lat="44.69088080" lon="5.65451640"><ele>1313</ele><time>2007-11-22T18:41:00Z</time></trkpt>
<trkpt lat="44.69039450" lon="5.65571790"><ele>1302</ele><time>2007-11-22T18:41:00Z</time></trkpt>
<trkpt lat="44.69015210" lon="5.65554590"><ele>1290</ele><time>2007-11-22T18:41:00Z</time></trkpt>
<trkpt lat="44.68846920" lon="5.65762300"><ele>1243</ele><time>2007-11-22T18:41:00Z</time></trkpt>
<trkpt lat="44.68771360" lon="5.65805140"><ele>1210</ele><time>2007-11-22T18:41:00Z</time></trkpt>
<trkpt lat="44.68710330" lon="5.65814140"><ele>1201</ele><time>2007-11-22T18:41:00Z</time></trkpt>
<trkpt lat="44.68705610" lon="5.65895880"><ele>1195</ele><time>2007-11-22T18:41:00Z</time></trkpt>
<trkpt lat="44.68652010" lon="5.66031510"><ele>1178</ele><time>2007-11-22T18:41:00Z</time></trkpt>
<trkpt lat="44.68597810" lon="5.66037760"><ele>1163</ele><time>2007-11-22T18:41:00Z</time></trkpt>
<trkpt lat="44.68470320" lon="5.66235240"><ele>1135</ele><time>2007-11-22T18:41:00Z</time></trkpt>
<trkpt lat="44.68436210" lon="5.66321540"><ele>1125</ele><time>2007-11-22T18:41:00Z</time></trkpt>
<trkpt lat="44.68490490" lon="5.66536120"><ele>1116</ele><time>2007-11-22T18:41:00Z</time></trkpt>
<trkpt lat="44.68540920" lon="5.66580130"><ele>1114</ele><time>2007-11-22T18:41:00Z</time></trkpt>
<trkpt lat="44.68725880" lon="5.66938130"><ele>1105</ele><time>2007-11-22T18:41:00Z</time></trkpt>
<trkpt lat="44.68739380" lon="5.67235470"><ele>1092</ele><time>2007-11-22T18:41:00Z</time></trkpt>
<trkpt lat="44.68777150" lon="5.67326050"><ele>1081</ele><time>2007-11-22T18:41:00Z</time></trkpt>
<trkpt lat="44.68762820" lon="5.67650140"><ele>1072</ele><time>2007-11-22T18:41:00Z</time></trkpt>
<trkpt lat="44.68727510" lon="5.67849930"><ele>1068</ele><time>2007-11-22T18:41:00Z</time></trkpt>
<trkpt lat="44.68734100" lon="5.67929190"><ele>1080</ele><time>2007-11-22T18:41:00Z</time></trkpt>
<trkpt lat="44.68685450" lon="5.68049320"><ele>1072</ele><time>2007-11-22T18:41:00Z</time></trkpt>
<trkpt lat="44.68664370" lon="5.68224730"><ele>1056</ele><time>2007-11-22T18:41:00Z</time></trkpt>
<trkpt lat="44.68624310" lon="5.68357990"><ele>1054</ele><time>2007-11-22T18:41:00Z</time></trkpt>
<trkpt lat="44.68630710" lon="5.68443540"><ele>1047</ele><time>2007-11-22T18:41:00Z</time></trkpt>
<trkpt lat="44.68599500" lon="5.68507930"><ele>1044</ele><time>2007-11-22T18:41:00Z</time></trkpt>
<trkpt lat="44.68620810" lon="5.68547060"><ele>1040</ele><time>2007-11-22T18:41:00Z</time></trkpt>
<trkpt lat="44.68660390" lon="5.68577810"><ele>1043</ele><time>2007-11-22T18:41:00Z</time></trkpt>
<trkpt lat="44.68770870" lon="5.68940900"><ele>1036</ele><time>2007-11-22T18:41:00Z</time></trkpt>
<trkpt lat="44.68769950" lon="5.69044950"><ele>1039</ele><time>2007-11-22T18:41:00Z</time></trkpt>
<trkpt lat="44.68750830" lon="5.69081670"><ele>1036</ele><time>2007-11-22T18:41:00Z</time></trkpt>
<trkpt lat="44.68796080" lon="5.69147470"><ele>1039</ele><time>2007-11-22T18:41:00Z</time></trkpt>
<trkpt lat="44.68845020" lon="5.69166170"><ele>1040</ele><time>2007-11-22T18:41:00Z</time></trkpt>
<trkpt lat="44.68859980" lon="5.69192310"><ele>1041</ele><time>2007-11-22T18:41:00Z</time></trkpt>
<trkpt lat="44.68908830" lon="5.69214160"><ele>1045</ele><time>2007-11-22T18:41:00Z</time></trkpt>
<trkpt lat="44.69018520" lon="5.69233350"><ele>1057</ele><time>2007-11-22T18:41:00Z</time></trkpt>
<trkpt lat="44.69158270" lon="5.69225940"><ele>1066</ele><time>2007-11-22T18:41:00Z</time></trkpt>
<trkpt lat="44.69238190" lon="5.69262280"><ele>1074</ele><time>2007-11-22T18:41:00Z</time></trkpt>
<trkpt lat="44.69270920" lon="5.69295790"><ele>1076</ele><time>2007-11-22T18:41:00Z</time></trkpt>
<trkpt lat="44.69283060" lon="5.69340680"><ele>1078</ele><time>2007-11-22T18:41:00Z</time></trkpt>
<trkpt lat="44.69358190" lon="5.69386200"><ele>1081</ele><time>2007-11-22T18:41:00Z</time></trkpt>
<trkpt lat="44.69261110" lon="5.69396160"><ele>1086</ele><time>2007-11-22T18:41:00Z</time></trkpt>
<trkpt lat="44.69172250" lon="5.69431850"><ele>1096</ele><time>2007-11-22T18:41:00Z</time></trkpt>
<trkpt lat="44.69138980" lon="5.69489800"><ele>1102</ele><time>2007-11-22T18:41:00Z</time></trkpt>
<trkpt lat="44.69097050" lon="5.69610330"><ele>1109</ele><time>2007-11-22T18:41:00Z</time></trkpt>
<trkpt lat="44.69100400" lon="5.69869240"><ele>1129</ele><time>2007-11-22T18:41:00Z</time></trkpt>
<trkpt lat="44.68954220" lon="5.69939340"><ele>1135</ele><time>2007-11-22T18:41:00Z</time></trkpt>
<trkpt lat="44.68857150" lon="5.69949290"><ele>1142</ele><time>2007-11-22T18:41:00Z</time></trkpt>
<trkpt lat="44.68625670" lon="5.69938560"><ele>1144</ele><time>2007-11-22T18:41:00Z</time></trkpt>
<trkpt lat="44.68655490" lon="5.69993980"><ele>1156</ele><time>2007-11-22T18:41:00Z</time></trkpt>
<trkpt lat="44.68728750" lon="5.70026760"><ele>1164</ele><time>2007-11-22T18:41:00Z</time></trkpt>
<trkpt lat="44.68760620" lon="5.70088620"><ele>1169</ele><time>2007-11-22T18:41:00Z</time></trkpt>
<trkpt lat="44.68776480" lon="5.70158970"><ele>1176</ele><time>2007-11-22T18:41:00Z</time></trkpt>
<trkpt lat="44.68814700" lon="5.70233830"><ele>1184</ele><time>2007-11-22T18:41:00Z</time></trkpt>
<trkpt lat="44.68830870" lon="5.70367300"><ele>1195</ele><time>2007-11-22T18:41:00Z</time></trkpt>
<trkpt lat="44.68825260" lon="5.70477380"><ele>1209</ele><time>2007-11-22T18:41:00Z</time></trkpt>
<trkpt lat="44.68908720" lon="5.70618060"><ele>1199</ele><time>2007-11-22T18:41:00Z</time></trkpt>
<trkpt lat="44.68950540" lon="5.70648970"><ele>1194</ele><time>2007-11-22T18:41:00Z</time></trkpt>
<trkpt lat="44.69035800" lon="5.70657250"><ele>1193</ele><time>2007-11-22T18:41:00Z</time></trkpt>
<trkpt lat="44.69175880" lon="5.70713000"><ele>1193</ele><time>2007-11-22T18:41:00Z</time></trkpt>
<trkpt lat="44.69183550" lon="5.70830190"><ele>1203</ele><time>2007-11-22T18:41:00Z</time></trkpt>
<trkpt lat="44.69155530" lon="5.70863210"><ele>1205</ele><time>2007-11-22T18:41:00Z</time></trkpt>
<trkpt lat="44.69033070" lon="5.70893700"><ele>1177</ele><time>2007-11-22T18:41:00Z</time></trkpt>
<trkpt lat="44.69090920" lon="5.70988680"><ele>1168</ele><time>2007-11-22T18:41:00Z</time></trkpt>
<trkpt lat="44.68936180" lon="5.70897340"><ele>1152</ele><time>2007-11-22T18:41:00Z</time></trkpt>
<trkpt lat="44.69016700" lon="5.70987370"><ele>1158</ele><time>2007-11-22T18:41:00Z</time></trkpt>
<trkpt lat="44.69060560" lon="5.71024710"><ele>1163</ele><time>2007-11-22T18:41:00Z</time></trkpt>
<trkpt lat="44.69057740" lon="5.71043470"><ele>1168</ele><time>2007-11-22T18:41:00Z</time></trkpt>
<trkpt lat="44.69014860" lon="5.71047200"><ele>1180</ele><time>2007-11-22T18:41:00Z</time></trkpt>
<trkpt lat="44.68969330" lon="5.70990820"><ele>1164</ele><time>2007-11-22T18:41:00Z</time></trkpt>
<trkpt lat="44.68802610" lon="5.70996560"><ele>1166</ele><time>2007-11-22T18:41:00Z</time></trkpt>
<trkpt lat="44.68769980" lon="5.70959900"><ele>1157</ele><time>2007-11-22T18:41:00Z</time></trkpt>
<trkpt lat="44.68711990" lon="5.71016350"><ele>1163</ele><time>2007-11-22T18:41:00Z</time></trkpt>
<trkpt lat="44.68677710" lon="5.71033210"><ele>1163</ele><time>2007-11-22T18:41:00Z</time></trkpt>
<trkpt lat="44.68632780" lon="5.71030510"><ele>1160</ele><time>2007-11-22T18:41:00Z</time></trkpt>
<trkpt lat="44.68591550" lon="5.70980710"><ele>1158</ele><time>2007-11-22T18:41:00Z</time></trkpt>
<trkpt lat="44.68535490" lon="5.70974180"><ele>1169</ele><time>2007-11-22T18:41:00Z</time></trkpt>
<trkpt lat="44.68391210" lon="5.70908710"><ele>1164</ele><time>2007-11-22T18:41:00Z</time></trkpt>
<trkpt lat="44.68258610" lon="5.70755630"><ele>1138</ele><time>2007-11-22T18:41:00Z</time></trkpt>
<trkpt lat="44.68117400" lon="5.71031030"><ele>1122</ele><time>2007-11-22T18:41:00Z</time></trkpt>
<trkpt lat="44.68086970" lon="5.71142760"><ele>1118</ele><time>2007-11-22T18:41:00Z</time></trkpt>
<trkpt lat="44.67957910" lon="5.71314790"><ele>1105</ele><time>2007-11-22T18:41:00Z</time></trkpt>
<trkpt lat="44.67914780" lon="5.71400510"><ele>1092</ele><time>2007-11-22T18:41:00Z</time></trkpt>
<trkpt lat="44.67897770" lon="5.71367940"><ele>1091</ele><time>2007-11-22T18:41:00Z</time></trkpt>
<trkpt lat="44.67922140" lon="5.71233770"><ele>1093</ele><time>2007-11-22T18:41:00Z</time></trkpt>
<trkpt lat="44.67880060" lon="5.71284860"><ele>1086</ele><time>2007-11-22T18:41:00Z</time></trkpt>
<trkpt lat="44.67855570" lon="5.71349630"><ele>1081</ele><time>2007-11-22T18:41:00Z</time></trkpt>
<trkpt lat="44.67858930" lon="5.71460230"><ele>1080</ele><time>2007-11-22T18:41:00Z</time></trkpt>
<trkpt lat="44.67848690" lon="5.71500620"><ele>1083</ele><time>2007-11-22T18:41:00Z</time></trkpt>
<trkpt lat="44.67469840" lon="5.71231770"><ele>1065</ele><time>2007-11-22T18:41:00Z</time></trkpt>
<trkpt lat="44.67435060" lon="5.71191830"><ele>1061</ele><time>2007-11-22T18:41:00Z</time></trkpt>
<trkpt lat="44.67326240" lon="5.71144270"><ele>1059</ele><time>2007-11-22T18:41:00Z</time></trkpt>
<trkpt lat="44.67330860" lon="5.71213940"><ele>1068</ele><time>2007-11-22T18:41:00Z</time></trkpt>
<trkpt lat="44.67387430" lon="5.71277270"><ele>1079</ele><time>2007-11-22T18:41:00Z</time></trkpt>
<trkpt lat="44.67398780" lon="5.71347340"><ele>1085</ele><time>2007-11-22T18:41:00Z</time></trkpt>
<trkpt lat="44.67469080" lon="5.71550280"><ele>1102</ele><time>2007-11-22T18:41:00Z</time></trkpt>
<trkpt lat="44.67580500" lon="5.71512840"><ele>1099</ele><time>2007-11-22T18:41:00Z</time></trkpt>
<trkpt lat="44.67618010" lon="5.71537180"><ele>1100</ele><time>2007-11-22T18:41:00Z</time></trkpt>
<trkpt lat="44.67723590" lon="5.71543540"><ele>1102</ele><time>2007-11-22T18:41:00Z</time></trkpt>
<trkpt lat="44.67751540" lon="5.71586230"><ele>1109</ele><time>2007-11-22T18:41:00Z</time></trkpt>
<trkpt lat="44.67822750" lon="5.71612610"><ele>1107</ele><time>2007-11-22T18:41:00Z</time></trkpt>
<trkpt lat="44.67857820" lon="5.71643110"><ele>1100</ele><time>2007-11-22T18:41:00Z</time></trkpt>
<trkpt lat="44.67862340" lon="5.71715930"><ele>1106</ele><time>2007-11-22T18:41:00Z</time></trkpt>
<trkpt lat="44.67920760" lon="5.71792000"><ele>1108</ele><time>2007-11-22T18:41:00Z</time></trkpt>
<trkpt lat="44.67965350" lon="5.71952410"><ele>1130</ele><time>2007-11-22T18:41:00Z</time></trkpt>
<trkpt lat="44.67980400" lon="5.71975400"><ele>1134</ele><time>2007-11-22T18:41:00Z</time></trkpt>
<trkpt lat="44.68070830" lon="5.71961930"><ele>1125</ele><time>2007-11-22T18:41:00Z</time></trkpt>
<trkpt lat="44.68078950" lon="5.71990810"><ele>1135</ele><time>2007-11-22T18:41:00Z</time></trkpt>
<trkpt lat="44.68062160" lon="5.72024490"><ele>1138</ele><time>2007-11-22T18:41:00Z</time></trkpt>
<trkpt lat="44.68078510" lon="5.72151660"><ele>1179</ele><time>2007-11-22T18:41:00Z</time></trkpt>
<trkpt lat="44.68045970" lon="5.72111840"><ele>1162</ele><time>2007-11-22T18:41:00Z</time></trkpt>
<trkpt lat="44.68033440" lon="5.72006990"><ele>1129</ele><time>2007-11-22T18:41:00Z</time></trkpt>
<trkpt lat="44.67936380" lon="5.72089450"><ele>1186</ele><time>2007-11-22T18:41:00Z</time></trkpt>
<trkpt lat="44.67887350" lon="5.72073870"><ele>1180</ele><time>2007-11-22T18:41:00Z</time></trkpt>
<trkpt lat="44.67861670" lon="5.72103870"><ele>1190</ele><time>2007-11-22T18:41:00Z</time></trkpt>
<trkpt lat="44.67875650" lon="5.72161490"><ele>1214</ele><time>2007-11-22T18:41:00Z</time></trkpt>
<trkpt lat="44.67846160" lon="5.72169170"><ele>1217</ele><time>2007-11-22T18:41:00Z</time></trkpt>
<trkpt lat="44.67865700" lon="5.72192430"><ele>1226</ele><time>2007-11-22T18:41:00Z</time></trkpt>
<trkpt lat="44.67849400" lon="5.72210370"><ele>1233</ele><time>2007-11-22T18:41:00Z</time></trkpt>
<trkpt lat="44.67929300" lon="5.72246740"><ele>1256</ele><time>2007-11-22T18:41:00Z</time></trkpt>
<trkpt lat="44.68019640" lon="5.72236430"><ele>1239</ele><time>2007-11-22T18:41:00Z</time></trkpt>
<trkpt lat="44.68069750" lon="5.72289920"><ele>1212</ele><time>2007-11-22T18:41:00Z</time></trkpt>
<trkpt lat="44.68060280" lon="5.72305120"><ele>1227</ele><time>2007-11-22T18:41:00Z</time></trkpt>
<trkpt lat="44.68011540" lon="5.72280100"><ele>1261</ele><time>2007-11-22T18:41:00Z</time></trkpt>
<trkpt lat="44.67936930" lon="5.72291360"><ele>1277</ele><time>2007-11-22T18:41:00Z</time></trkpt>
<trkpt lat="44.67836030" lon="5.72278960"><ele>1257</ele><time>2007-11-22T18:41:00Z</time></trkpt>
<trkpt lat="44.67778790" lon="5.72237650"><ele>1249</ele><time>2007-11-22T18:41:00Z</time></trkpt>
<trkpt lat="44.67735630" lon="5.72250810"><ele>1249</ele><time>2007-11-22T18:41:00Z</time></trkpt>
<trkpt lat="44.67663780" lon="5.72391570"><ele>1263</ele><time>2007-11-22T18:41:00Z</time></trkpt>
<trkpt lat="44.67604700" lon="5.72410080"><ele>1261</ele><time>2007-11-22T18:41:00Z</time></trkpt>
<trkpt lat="44.67579120" lon="5.72436920"><ele>1267</ele><time>2007-11-22T18:41:00Z</time></trkpt>
<trkpt lat="44.67475390" lon="5.72443260"><ele>1257</ele><time>2007-11-22T18:41:00Z</time></trkpt>
<trkpt lat="44.67382340" lon="5.72541720"><ele>1271</ele><time>2007-11-22T18:41:00Z</time></trkpt>
<trkpt lat="44.67266420" lon="5.72578870"><ele>1262</ele><time>2007-11-22T18:41:00Z</time></trkpt>
<trkpt lat="44.67178350" lon="5.72661860"><ele>1272</ele><time>2007-11-22T18:41:00Z</time></trkpt>
<trkpt lat="44.66859030" lon="5.72872770"><ele>1262</ele><time>2007-11-22T18:41:00Z</time></trkpt>
<trkpt lat="44.66774550" lon="5.72911810"><ele>1238</ele><time>2007-11-22T18:41:00Z</time></trkpt>
<trkpt lat="44.66754720" lon="5.72898000"><ele>1224</ele><time>2007-11-22T18:41:00Z</time></trkpt>
<trkpt lat="44.66736450" lon="5.72833820"><ele>1195</ele><time>2007-11-22T18:41:00Z</time></trkpt>
<trkpt lat="44.66581140" lon="5.72761350"><ele>1134</ele><time>2007-11-22T18:41:00Z</time></trkpt>
<trkpt lat="44.66558660" lon="5.72687460"><ele>1119</ele><time>2007-11-22T18:41:00Z</time></trkpt>
<trkpt lat="44.66527370" lon="5.72534200"><ele>1098</ele><time>2007-11-22T18:41:00Z</time></trkpt>
<trkpt lat="44.66523060" lon="5.72455100"><ele>1093</ele><time>2007-11-22T18:41:00Z</time></trkpt>
<trkpt lat="44.66505180" lon="5.72450860"><ele>1090</ele><time>2007-11-22T18:41:00Z</time></trkpt>
<trkpt lat="44.66495020" lon="5.72415560"><ele>1088</ele><time>2007-11-22T18:41:00Z</time></trkpt>
<trkpt lat="44.66537480" lon="5.72351900"><ele>1086</ele><time>2007-11-22T18:41:00Z</time></trkpt>
<trkpt lat="44.66474160" lon="5.72215630"><ele>1068</ele><time>2007-11-22T18:41:00Z</time></trkpt>
<trkpt lat="44.66376770" lon="5.72162450"><ele>1054</ele><time>2007-11-22T18:41:00Z</time></trkpt>
<trkpt lat="44.66313180" lon="5.72108150"><ele>1048</ele><time>2007-11-22T18:41:00Z</time></trkpt>
<trkpt lat="44.66282090" lon="5.72021140"><ele>1048</ele><time>2007-11-22T18:41:00Z</time></trkpt>
<trkpt lat="44.66304710" lon="5.71871140"><ele>1049</ele><time>2007-11-22T18:41:00Z</time></trkpt>
<trkpt lat="44.66306980" lon="5.71650530"><ele>1041</ele><time>2007-11-22T18:41:00Z</time></trkpt>
<trkpt lat="44.66382950" lon="5.71595200"><ele>1030</ele><time>2007-11-22T18:41:00Z</time></trkpt>
<trkpt lat="44.66636350" lon="5.71478020"><ele>1023</ele><time>2007-11-22T18:41:00Z</time></trkpt>
<trkpt lat="44.66696400" lon="5.71428030"><ele>1022</ele><time>2007-11-22T18:41:00Z</time></trkpt>
<trkpt lat="44.66735940" lon="5.71386260"><ele>1022</ele><time>2007-11-22T18:41:00Z</time></trkpt>
<trkpt lat="44.66820640" lon="5.71192680"><ele>1020</ele><time>2007-11-22T18:41:00Z</time></trkpt>
<trkpt lat="44.66778610" lon="5.71095540"><ele>1019</ele><time>2007-11-22T18:41:00Z</time></trkpt>
<trkpt lat="44.66764910" lon="5.71028490"><ele>1018</ele><time>2007-11-22T18:41:00Z</time></trkpt>
<trkpt lat="44.66683210" lon="5.70903730"><ele>1018</ele><time>2007-11-22T18:41:00Z</time></trkpt>
<trkpt lat="44.66597640" lon="5.70611610"><ele>1030</ele><time>2007-11-22T18:41:00Z</time></trkpt>
</trkseg></trk></gpx>